User: anonymous   Login
Location: Unspecified
(0.0000°N, 0.0000°E)
Time: 21:09:09
(UTC+00:00)
Language:

TBA - TO BE ASSIGNED - Orbit

View from above orbital plane
View from above orbital plane
View from above satellite
View from above satellite

Ground track
Ground track

The orbit is defined by the following mean orbital elements,

1 69123U          26144.65318426 +.00000000 +00000-0 -42379-3 0 00005
2 69123  70.0007 229.2745 0009123 259.5159 100.4951 14.57062785    04
Epoch (UTC): 24 May 2026 15:40:35
Eccentricity: 0.0009123
inclination: 70.0007°
perigee height: 696 km
apogee height: 709 km
right ascension of ascending node: 229.2745°
argument of perigee: 259.5159°
revolutions per day: 14.57062785
mean anomaly at epoch: 100.4951°

The dashed part of the orbit path shows where the satellite is in the earth's shadow,  

DLR